Location: Karcze
(52.0945°N, 22.4786°E)
Time: 11:51:15
(UTC+00:00)

Cosmos 1733 Rocket - Pass Details

Date: 14 July 2020
Orbit: 604 x 627 km, 82.5° (Epoch: 08 August)

Event Time Altitude Azimuth Distance (km) Brightness Sun altitude
Exits shadow 01:29:33 - 205° (SSW) 2,099 5.2 -7.1°
Reaches altitude 10° 01:29:56 10° 206° (SSW) 1,950 5.0 -7.1°
Maximum altitude 01:34:09 54° 284° (WNW) 738 3.3 -6.7°
Drops below altitude 10° 01:38:26 10° 3° (N) 1,967 6.5 -6.2°
Sets 01:40:42 0° 8° (N) 2,877 7.5 -6.0°
